Central Park, NY

2:50 PM EDT on July 24, 2017 (GMT -0400)
Central Park

Weather History for KNYC - December, 2013

Change the Weather History Date:

Sunday, December 8, 2013

  Actual Average Record
Temperature  
Mean Temperature 31 °F 40 °F  
Max Temperature 33 °F 45 °F 65 °F (1927)
Min Temperature 29 °F 34 °F 4 °F (1900)
Degree Days  
Heating Degree Days 34 25  
Month to date heating degree days 167 191  
Since 1 July heating degree days 975 1024  
Cooling Degree Days 0 0  
Month to date cooling degree days 0 0  
Year to date cooling degree days 1271 1105  
Moisture  
Dew Point 21 °F    
Average Humidity 65    
Maximum Humidity 85    
Minimum Humidity 45    
Precipitation  
Precipitation 0.08 in 0.14 in 1.54 in (1917)
Month to date precipitation 0.96 1.12  
Year to date precipitation 42.43 47.06  
Snow  
Snow 0.10 in 0.10 in 2.00 in (1928)
Month to date snowfall 0.1 0.7  
Since 1 July snowfall 0.1 1.0  
Snow Depth 0.00 in    
Sea Level Pressure  
Sea Level Pressure 30.51 in    
Wind  
Wind Speed 6 mph (NE)    
Max Wind Speed 15 mph    
Max Gust Speed 20 mph    
Visibility 6 miles    
Events Rain , Snow    
T = Trace of Precipitation, MM = Missing Value Source: NWS Daily Summary

Daily Weather History Graph

Daily Weather History Graph

Search for Another Location

Airport or City:

Trip Planner

Search our weather history database for the weather conditions in past years. The results will help you decide how hot, cold, wet, or windy it might be!

Date:

Astronomy

Dec. 08, 2013 Rise Set
Actual Time 7:07 AM EST 4:28 PM EST
Civil Twilight 6:36 AM EST 4:58 PM EST
Nautical Twilight 6:02 AM EST 5:33 PM EST
Astronomical Twilight 5:29 AM EST 6:06 PM EST
Moon 11:24 AM EST (12/8) 11:16 PM EST (12/8)
Length of Visible Light 10h 22m
Length of Day
9h 20m
Waxing Crescent, 40% of the Moon is Illuminated
Dec 8
Waxing Crescent
Dec 9
First Quarter
Dec 17
Full
Dec 25
Last Quarter
Jan 1
New

Hourly Weather History & Observations

Time (EST) Temp. Windchill Dew Point Humidity Pressure Visibility Wind Dir Wind Speed Gust Speed Precip Events Conditions
12:51 AM 30.9 °F 27.5 °F 14.0 °F 50% 30.51 in 10.0 mi Variable 3.5 mph - N/A   Clear
1:51 AM 30.0 °F 26.5 °F 12.9 °F 49% 30.51 in 10.0 mi Variable 3.5 mph - N/A   Clear
2:51 AM 30.0 °F 26.5 °F 12.9 °F 49% 30.54 in 10.0 mi Variable 3.5 mph - N/A   Clear
3:51 AM 28.9 °F 25.2 °F 12.9 °F 51% 30.55 in 10.0 mi Variable 3.5 mph - N/A   Clear
4:51 AM 28.9 °F 21.1 °F 12.0 °F 49% 30.54 in 10.0 mi North 8.1 mph - N/A   Clear
5:51 AM 28.9 °F 22.8 °F 12.9 °F 51% 30.57 in 10.0 mi Variable 5.8 mph - N/A   Clear
6:51 AM 28.9 °F 22.8 °F 12.9 °F 51% 30.57 in 10.0 mi North 5.8 mph - N/A   Clear
7:51 AM 30.0 °F - 15.1 °F 54% 30.58 in 10.0 mi Calm Calm - N/A   Clear
8:51 AM 30.9 °F 27.5 °F 15.1 °F 52% 30.60 in 10.0 mi NNE 3.5 mph - N/A   Clear
9:51 AM 32.0 °F 24.2 °F 14.0 °F 48% 30.59 in 10.0 mi ENE 9.2 mph - N/A   Partly Cloudy
10:51 AM 32.0 °F 23.0 °F 14.0 °F 48% 30.58 in 10.0 mi ENE 11.5 mph - N/A   Overcast
11:51 AM 32.0 °F 25.6 °F 14.0 °F 48% 30.56 in 10.0 mi NNE 6.9 mph - N/A   Overcast
12:51 PM 33.1 °F 26.9 °F 15.1 °F 48% 30.55 in 10.0 mi ENE 6.9 mph - N/A   Overcast
1:51 PM 33.1 °F 27.7 °F 17.1 °F 52% 30.53 in 10.0 mi NE 5.8 mph - N/A   Overcast
2:51 PM 33.1 °F 26.9 °F 17.1 °F 52% 30.50 in 10.0 mi Variable 6.9 mph - N/A   Overcast
3:51 PM 33.1 °F 30.0 °F 17.1 °F 52% 30.52 in 10.0 mi Variable 3.5 mph - N/A   Overcast
4:48 PM 30.2 °F 23.4 °F 21.2 °F 69% 30.54 in 1.0 mi Variable 6.9 mph - 0.01 in Snow Light Snow
4:51 PM 30.9 °F 23.5 °F 23.0 °F 72% 30.52 in 1.0 mi ENE 8.1 mph - 0.01 in Snow Light Snow
5:02 PM 30.0 °F 24.1 °F 24.1 °F 79% 30.55 in 1.0 mi Variable 5.8 mph - 0.00 in Snow Light Snow
5:51 PM 30.0 °F 22.4 °F 25.0 °F 82% 30.51 in 1.2 mi ENE 8.1 mph - 0.03 in Snow Light Snow
6:08 PM 30.0 °F 24.1 °F 26.1 °F 85% 30.53 in 1.8 mi Variable 5.8 mph - 0.00 in Snow Light Snow
6:32 PM 30.0 °F 25.2 °F 26.1 °F 85% 30.52 in 2.0 mi Variable 4.6 mph - 0.01 in Snow Light Snow
6:46 PM 30.2 °F 24.3 °F 24.8 °F 80% 30.53 in 4.0 mi Variable 5.8 mph - 0.01 in Snow Light Snow
6:51 PM 30.0 °F 25.2 °F 25.0 °F 82% 30.51 in 4.0 mi Variable 4.6 mph - 0.01 in Snow Light Snow
7:51 PM 30.0 °F 25.2 °F 25.0 °F 82% 30.50 in 6.0 mi ENE 4.6 mph - 0.00 in   Haze
8:04 PM 30.0 °F 25.2 °F 25.0 °F 82% 30.51 in 4.0 mi Variable 4.6 mph - N/A   Haze
8:24 PM 30.0 °F 23.2 °F 25.0 °F 82% 30.50 in 4.0 mi ENE 6.9 mph - N/A   Haze
8:34 PM 30.0 °F 23.2 °F 26.1 °F 85% 30.49 in 4.0 mi ENE 6.9 mph - 0.00 in   Overcast
8:51 PM 30.0 °F 20.5 °F 25.0 °F 82% 30.45 in 5.0 mi ENE 11.5 mph - 0.00 in   Haze
9:46 PM 30.2 °F 23.4 °F 26.6 °F 86% 30.43 in 5.0 mi East 6.9 mph - N/A   Overcast
9:51 PM 32.0 °F 25.6 °F 27.0 °F 82% 30.41 in 5.0 mi Variable 6.9 mph - N/A   Haze
10:51 PM 32.0 °F 25.6 °F 28.0 °F 85% 30.41 in 3.0 mi Variable 6.9 mph 17.3 mph N/A   Overcast
11:38 PM 32.0 °F 23.6 °F 28.9 °F 88% 30.41 in 3.0 mi ENE 10.4 mph 17.3 mph 0.02 in   Overcast
11:47 PM 32.0 °F 24.2 °F 28.4 °F 87% 30.40 in 3.0 mi ENE 9.2 mph 18.4 mph 0.02 in Rain Light Freezing Rain
11:51 PM 32.0 °F 23.6 °F 28.9 °F 88% 30.39 in 2.5 mi East 10.4 mph 17.3 mph 0.03 in Rain Light Freezing Rain